Weather History for K4BM - July, 2012

Change the Weather History Date:

Wednesday, July 25, 2012

  Actual Average (KAFF) Record (KAFF)
Temperature  
Mean Temperature 57 °F -  
Max Temperature 64 °F 80 °F 93 °F (2003)
Min Temperature 50 °F 53 °F 50 °F (2001)
Degree Days  
Heating Degree Days 8    
Growing Degree Days 7 (Base 50)    
Moisture  
Dew Point 39 °F    
Average Humidity 58    
Maximum Humidity 72    
Minimum Humidity 42    
Precipitation  
Precipitation 0.00 in - - ()
Sea Level Pressure  
Sea Level Pressure 30.53 in    
Wind  
Wind Speed 4 mph (NNW)    
Max Wind Speed 13 mph    
Max Gust Speed 24 mph    
Visibility 10 miles    
Events Rain , Thunderstorm    
Averages and records for this station are not official NWS values.
T = Trace of Precipitation, MM = Missing Value Source: NWS Daily Summary

Daily Weather History Graph

Daily Weather History Graph

Search for Another Location

Airport or City:

Trip Planner

Search our weather history database for the weather conditions in past years. The results will help you decide how hot, cold, wet, or windy it might be!

Date:

Astronomy

Jul. 25, 2012 Rise Set
Actual Time 5:57 AM MDT 8:19 PM MDT
Civil Twilight 5:26 AM MDT 8:49 PM MDT
Nautical Twilight 4:49 AM MDT 9:27 PM MDT
Astronomical Twilight 4:07 AM MDT 10:08 PM MDT
Moon 1:01 PM MDT (7/25) 11:51 PM MDT (7/25)
Length of Visible Light 15h 23m
Length of Day
14h 22m
Waxing Crescent, 43% of the Moon is Illuminated
Jul 25
Waxing Crescent
Jul 26
First Quarter
Aug 1
Full
Aug 9
Last Quarter
Aug 17
New

Hourly Weather History & Observations

Time (MDT) Temp. Dew Point Humidity Pressure Visibility Wind Dir Wind Speed Gust Speed Precip Events Conditions
12:13 AM 53.6 °F 37.4 °F 54% 30.51 in 10.0 mi Calm Calm - N/A   Clear
12:33 AM 53.6 °F 37.4 °F 54% 30.52 in 10.0 mi Calm Calm - N/A   Scattered Clouds
12:53 AM 53.6 °F 37.4 °F 54% 30.51 in 10.0 mi NW 3.5 mph - N/A   Scattered Clouds
1:13 AM 51.8 °F 35.6 °F 54% 30.51 in 10.0 mi NNW 3.5 mph - N/A   Scattered Clouds
1:33 AM 53.6 °F 35.6 °F 51% 30.51 in 10.0 mi WSW 3.5 mph - N/A   Clear
1:53 AM 51.8 °F 37.4 °F 58% 30.49 in 10.0 mi West 6.9 mph - N/A   Clear
2:13 AM 51.8 °F 37.4 °F 58% 30.49 in 10.0 mi West 10.4 mph 19.6 mph N/A   Clear
2:33 AM 51.8 °F 37.4 °F 58% 30.48 in 10.0 mi WNW 8.1 mph 21.9 mph N/A   Clear
2:53 AM 51.8 °F 37.4 °F 58% 30.47 in 10.0 mi WNW 10.4 mph 20.7 mph N/A   Clear
3:13 AM 51.8 °F 37.4 °F 58% 30.47 in 10.0 mi WNW 11.5 mph 20.7 mph N/A   Clear
3:53 AM 50.0 °F 37.4 °F 62% 30.47 in 10.0 mi WNW 9.2 mph 17.3 mph N/A   Clear
4:13 AM 50.0 °F 37.4 °F 62% 30.47 in 10.0 mi WNW 9.2 mph 17.3 mph N/A   Scattered Clouds
4:33 AM 50.0 °F 37.4 °F 62% 30.47 in 10.0 mi WNW 11.5 mph 18.4 mph N/A   Mostly Cloudy
4:53 AM 50.0 °F 35.6 °F 58% 30.47 in 10.0 mi NW 9.2 mph 18.4 mph N/A   Mostly Cloudy
5:13 AM 50.0 °F 35.6 °F 58% 30.48 in 10.0 mi NW 8.1 mph 17.3 mph N/A   Overcast
5:33 AM 50.0 °F 35.6 °F 58% 30.48 in 10.0 mi WNW 11.5 mph 18.4 mph N/A   Overcast
5:53 AM 50.0 °F 35.6 °F 58% 30.49 in 10.0 mi NW 8.1 mph 17.3 mph N/A   Overcast
6:13 AM 50.0 °F 35.6 °F 58% 30.50 in 10.0 mi NNW 9.2 mph 16.1 mph N/A   Scattered Clouds
6:32 AM 50.0 °F 35.6 °F 58% 30.50 in 10.0 mi NNW 10.4 mph 24.2 mph N/A   Clear
6:53 AM 51.8 °F 37.4 °F 58% 30.50 in 10.0 mi NNW 8.1 mph 16.1 mph N/A   Scattered Clouds
7:13 AM 51.8 °F 37.4 °F 58% 30.50 in 10.0 mi NNW 10.4 mph 18.4 mph N/A   Scattered Clouds
7:33 AM 51.8 °F 37.4 °F 58% 30.51 in 10.0 mi NW 6.9 mph - N/A   Mostly Cloudy
7:53 AM 51.8 °F 37.4 °F 58% 30.52 in 10.0 mi Calm Calm - N/A   Overcast
8:13 AM 53.6 °F 37.4 °F 54% 30.53 in 10.0 mi Calm Calm - N/A   Mostly Cloudy
8:33 AM 53.6 °F 41.0 °F 62% 30.54 in 10.0 mi NE 4.6 mph - N/A   Scattered Clouds
8:53 AM 55.4 °F 41.0 °F 58% 30.55 in 10.0 mi North 4.6 mph - N/A   Mostly Cloudy
9:13 AM 55.4 °F 37.4 °F 51% 30.55 in 10.0 mi Calm Calm - N/A   Mostly Cloudy
9:33 AM 53.6 °F 37.4 °F 54% 30.55 in 10.0 mi Calm Calm - N/A   Overcast
9:53 AM 55.4 °F 37.4 °F 51% 30.55 in 10.0 mi Calm Calm - N/A   Overcast
10:13 AM 53.6 °F 37.4 °F 54% 30.55 in 10.0 mi Calm Calm - N/A   Overcast
10:33 AM 53.6 °F 37.4 °F 54% 30.56 in 10.0 mi Calm Calm - N/A   Overcast
10:53 AM 53.6 °F 39.2 °F 58% 30.56 in 10.0 mi Calm Calm - N/A   Overcast
11:13 AM 55.4 °F 41.0 °F 58% 30.56 in 10.0 mi Calm Calm - N/A   Light Drizzle
11:33 AM 55.4 °F 41.0 °F 58% 30.56 in 10.0 mi Calm Calm - N/A   Overcast
11:53 AM 57.2 °F 37.4 °F 48% 30.55 in 10.0 mi Calm Calm - N/A   Overcast
12:13 PM 57.2 °F 37.4 °F 48% 30.55 in 10.0 mi South 3.5 mph - N/A   Overcast
12:33 PM 55.4 °F 37.4 °F 51% 30.55 in 10.0 mi ENE 3.5 mph - N/A   Overcast
12:53 PM 55.4 °F 41.0 °F 58% 30.56 in 10.0 mi Calm Calm - N/A Rain Light Rain
1:13 PM 53.6 °F 41.0 °F 62% 30.55 in 10.0 mi NE 4.6 mph - N/A   Overcast
1:33 PM 57.2 °F 42.8 °F 59% 30.55 in 10.0 mi ESE 3.5 mph - N/A   Mostly Cloudy
1:53 PM 55.4 °F 42.8 °F 63% 30.55 in 10.0 mi ENE 3.5 mph - N/A   Mostly Cloudy
2:13 PM 53.6 °F 44.6 °F 72% 30.55 in 7.0 mi South 12.7 mph 18.4 mph N/A   Drizzle
2:33 PM 53.6 °F 44.6 °F 72% 30.55 in 10.0 mi SW 5.8 mph - N/A   Drizzle
2:53 PM 60.8 °F 41.0 °F 48% 30.55 in 10.0 mi Calm Calm - N/A   Scattered Clouds
3:13 PM 64.4 °F 41.0 °F 42% 30.55 in 10.0 mi West 3.5 mph - N/A   Scattered Clouds
3:33 PM 62.6 °F 39.2 °F 42% 30.54 in 10.0 mi Calm Calm - N/A   Scattered Clouds
3:53 PM 57.2 °F 41.0 °F 55% 30.55 in 10.0 mi NNW 5.8 mph - N/A Thunderstorm Overcast
4:13 PM 51.8 °F 42.8 °F 71% 30.55 in 10.0 mi NNW 8.1 mph - N/A Rain Light Rain
4:33 PM 55.4 °F 41.0 °F 58% 30.54 in 10.0 mi NNE 3.5 mph - N/A Thunderstorm Mostly Cloudy
4:53 PM 59.0 °F 39.2 °F 48% 30.54 in 10.0 mi Calm Calm - N/A   Scattered Clouds
5:13 PM 60.8 °F 42.8 °F 52% 30.53 in 10.0 mi ENE 3.5 mph - N/A   Scattered Clouds
5:33 PM 55.4 °F 44.6 °F 67% 30.53 in 10.0 mi East 4.6 mph - N/A   Mostly Cloudy
5:53 PM 53.6 °F 44.6 °F 72% 30.54 in 10.0 mi ENE 3.5 mph - N/A   Overcast
6:13 PM 51.8 °F 42.8 °F 71% 30.54 in 10.0 mi Calm Calm - N/A   Overcast
6:31 PM 53.6 °F 42.8 °F 67% 30.54 in 10.0 mi Calm Calm - N/A   Mostly Cloudy
6:53 PM 53.6 °F 41.0 °F 62% 30.54 in 10.0 mi NW 5.8 mph - N/A   Clear
7:13 PM 53.6 °F 39.2 °F 58% 30.55 in 10.0 mi Calm Calm - N/A   Scattered Clouds
7:33 PM 53.6 °F 41.0 °F 62% 30.55 in 10.0 mi NW 5.8 mph - N/A   Scattered Clouds
7:53 PM 53.6 °F 39.2 °F 58% 30.56 in 10.0 mi North 5.8 mph - N/A   Clear
8:13 PM 53.6 °F 37.4 °F 54% 30.56 in 10.0 mi NNE 8.1 mph - N/A   Clear
8:33 PM 53.6 °F 39.2 °F 58% 30.56 in 10.0 mi North 8.1 mph - N/A   Clear
8:53 PM 53.6 °F 39.2 °F 58% 30.57 in 10.0 mi NNW 9.2 mph - N/A   Scattered Clouds
9:13 PM 51.8 °F 37.4 °F 58% 30.57 in 10.0 mi North 6.9 mph - N/A   Scattered Clouds
9:33 PM 51.8 °F 37.4 °F 58% 30.58 in 10.0 mi NNE 6.9 mph - N/A   Clear
9:53 PM 53.6 °F 37.4 °F 54% 30.58 in 10.0 mi Calm Calm - N/A   Clear
10:13 PM 51.8 °F 39.2 °F 62% 30.59 in 10.0 mi Calm Calm - N/A   Clear
10:33 PM 51.8 °F 37.4 °F 58% 30.59 in 10.0 mi Calm Calm - N/A   Clear
10:53 PM 51.8 °F 37.4 °F 58% 30.59 in 10.0 mi NW 3.5 mph - N/A   Clear
11:13 PM 51.8 °F 37.4 °F 58% 30.58 in 10.0 mi Calm Calm - N/A   Clear
11:33 PM 51.8 °F 37.4 °F 58% 30.58 in 10.0 mi NNW 3.5 mph - N/A   Clear
11:53 PM 51.8 °F 37.4 °F 58% 30.59 in 10.0 mi NW 3.5 mph - N/A   Clear